Year,Month,Day,Hour,Minute,Value (Times are PST for temperature in C)
2021,04,20,00,00,8.90
2021,04,20,00,01,8.90
2021,04,20,00,02,8.90
2021,04,20,00,03,8.80
2021,04,20,00,04,8.80
2021,04,20,00,05,8.80
2021,04,20,00,06,8.80
2021,04,20,00,07,8.80
2021,04,20,00,08,8.80
2021,04,20,00,09,8.70
2021,04,20,00,10,8.70
2021,04,20,00,11,8.70
2021,04,20,00,12,8.70
2021,04,20,00,13,8.60
2021,04,20,00,14,8.60
2021,04,20,00,15,8.60
2021,04,20,00,16,8.60
2021,04,20,00,17,8.60
2021,04,20,00,18,8.60
2021,04,20,00,19,8.60
2021,04,20,00,20,8.60
2021,04,20,00,21,8.70
2021,04,20,00,22,8.70
2021,04,20,00,23,8.70
2021,04,20,00,24,8.70
2021,04,20,00,25,8.70
2021,04,20,00,26,8.70
2021,04,20,00,27,8.70
2021,04,20,00,28,8.70
2021,04,20,00,29,8.70
2021,04,20,00,30,8.70
2021,04,20,00,31,8.60
2021,04,20,00,32,8.60
2021,04,20,00,33,8.60
2021,04,20,00,34,8.60
2021,04,20,00,35,8.60
2021,04,20,00,36,8.50
2021,04,20,00,37,8.50
2021,04,20,00,38,8.50
2021,04,20,00,39,8.50
2021,04,20,00,40,8.40
2021,04,20,00,41,8.40
2021,04,20,00,42,8.40
2021,04,20,00,43,8.40
2021,04,20,00,44,8.40
2021,04,20,00,45,8.40
2021,04,20,00,46,8.40
2021,04,20,00,47,8.30
2021,04,20,00,48,8.30
2021,04,20,00,49,8.30
2021,04,20,00,50,8.30
2021,04,20,00,51,8.30
2021,04,20,00,52,8.30
2021,04,20,00,53,8.30
2021,04,20,00,54,8.30
2021,04,20,00,55,8.30
2021,04,20,00,56,8.40
2021,04,20,00,57,8.40
2021,04,20,00,58,8.40
2021,04,20,00,59,8.40
2021,04,20,01,00,8.40
2021,04,20,01,01,8.30
2021,04,20,01,02,8.30
2021,04,20,01,03,8.30
2021,04,20,01,04,8.30
2021,04,20,01,05,8.30
2021,04,20,01,06,8.30
2021,04,20,01,07,8.30
2021,04,20,01,08,8.20
2021,04,20,01,09,8.20
2021,04,20,01,10,8.20
2021,04,20,01,11,8.20
2021,04,20,01,12,8.20
2021,04,20,01,13,8.20
2021,04,20,01,14,8.20
2021,04,20,01,15,8.20
2021,04,20,01,16,8.20
2021,04,20,01,17,8.20
2021,04,20,01,18,8.20
2021,04,20,01,19,8.20
2021,04,20,01,20,8.20
2021,04,20,01,21,8.20
2021,04,20,01,22,8.20
2021,04,20,01,23,8.20
2021,04,20,01,24,8.20
2021,04,20,01,25,8.20
2021,04,20,01,26,8.20
2021,04,20,01,27,8.20
2021,04,20,01,28,8.20
2021,04,20,01,29,8.20
2021,04,20,01,30,8.20
2021,04,20,01,31,8.20
2021,04,20,01,32,8.20
2021,04,20,01,33,8.20
2021,04,20,01,34,8.20
2021,04,20,01,35,8.10
2021,04,20,01,36,8.10
2021,04,20,01,37,8.10
2021,04,20,01,38,8.10
2021,04,20,01,39,8.10
2021,04,20,01,40,8.00
2021,04,20,01,41,8.00
2021,04,20,01,42,8.00
2021,04,20,01,43,8.00
2021,04,20,01,44,7.90
2021,04,20,01,45,7.90
2021,04,20,01,46,7.90
2021,04,20,01,47,7.90
2021,04,20,01,48,7.80
2021,04,20,01,49,7.80
2021,04,20,01,50,7.80
2021,04,20,01,51,7.80
2021,04,20,01,52,7.80
2021,04,20,01,53,7.80
2021,04,20,01,54,7.80
2021,04,20,01,55,7.80
2021,04,20,01,56,7.70
2021,04,20,01,57,7.70
2021,04,20,01,58,7.70
2021,04,20,01,59,7.70
2021,04,20,02,00,7.70
2021,04,20,02,01,7.70
2021,04,20,02,02,7.70
2021,04,20,02,03,7.70
2021,04,20,02,04,7.70
2021,04,20,02,05,7.70
2021,04,20,02,06,7.70
2021,04,20,02,07,7.70
2021,04,20,02,08,7.70
2021,04,20,02,09,7.70
2021,04,20,02,10,7.70
2021,04,20,02,11,7.70
2021,04,20,02,12,7.70
2021,04,20,02,13,7.80
2021,04,20,02,14,7.80
2021,04,20,02,15,7.80
2021,04,20,02,16,7.80
2021,04,20,02,17,7.80
2021,04,20,02,18,7.80
2021,04,20,02,19,7.80
2021,04,20,02,20,7.80
2021,04,20,02,21,7.80
2021,04,20,02,22,7.80
2021,04,20,02,23,7.80
2021,04,20,02,24,7.80
2021,04,20,02,25,7.80
2021,04,20,02,26,7.80
2021,04,20,02,27,7.80
2021,04,20,02,28,7.80
2021,04,20,02,29,7.80
2021,04,20,02,30,7.80
2021,04,20,02,31,7.80
2021,04,20,02,32,7.80
2021,04,20,02,33,7.90
2021,04,20,02,34,7.90
2021,04,20,02,35,8.00
2021,04,20,02,36,8.10
2021,04,20,02,37,8.10
2021,04,20,02,38,8.10
2021,04,20,02,39,8.10
2021,04,20,02,40,8.20
2021,04,20,02,41,8.20
2021,04,20,02,42,8.20
2021,04,20,02,43,8.20
2021,04,20,02,44,8.20
2021,04,20,02,45,8.20
2021,04,20,02,46,8.30
2021,04,20,02,47,8.30
2021,04,20,02,48,8.40
2021,04,20,02,49,8.50
2021,04,20,02,50,8.50
2021,04,20,02,51,8.60
2021,04,20,02,52,8.70
2021,04,20,02,53,8.70
2021,04,20,02,54,8.80
2021,04,20,02,55,8.80
2021,04,20,02,56,8.90
2021,04,20,02,57,9.00
2021,04,20,02,58,9.10
2021,04,20,02,59,9.20
2021,04,20,03,00,9.30
2021,04,20,03,01,9.30
2021,04,20,03,02,9.40
2021,04,20,03,03,9.40
2021,04,20,03,04,9.40
2021,04,20,03,05,9.40
2021,04,20,03,06,9.40
2021,04,20,03,07,9.50
2021,04,20,03,08,9.50
2021,04,20,03,09,9.50
2021,04,20,03,10,9.50
2021,04,20,03,11,9.50
2021,04,20,03,12,9.50
2021,04,20,03,13,9.50
2021,04,20,03,14,9.60
2021,04,20,03,15,9.60
2021,04,20,03,16,9.60
2021,04,20,03,17,9.60
2021,04,20,03,18,9.60
2021,04,20,03,19,9.70
2021,04,20,03,20,9.70
2021,04,20,03,21,9.70
2021,04,20,03,22,9.70
2021,04,20,03,23,9.70
2021,04,20,03,24,9.80
2021,04,20,03,25,9.80
2021,04,20,03,26,9.80
2021,04,20,03,27,9.80
2021,04,20,03,28,9.80
2021,04,20,03,29,9.80
2021,04,20,03,30,9.80
2021,04,20,03,31,9.80
2021,04,20,03,32,9.80
2021,04,20,03,33,9.80
2021,04,20,03,34,9.80
2021,04,20,03,35,9.80
2021,04,20,03,36,9.80
2021,04,20,03,37,9.80
2021,04,20,03,38,9.80
2021,04,20,03,39,9.80
2021,04,20,03,40,9.80
2021,04,20,03,41,9.80
2021,04,20,03,42,9.80
2021,04,20,03,43,9.80
2021,04,20,03,44,9.80
2021,04,20,03,45,9.80
2021,04,20,03,46,9.80
2021,04,20,03,47,9.90
2021,04,20,03,48,10.00
2021,04,20,03,49,10.10
2021,04,20,03,50,10.10
2021,04,20,03,51,10.10
2021,04,20,03,52,10.10
2021,04,20,03,53,10.10
2021,04,20,03,54,10.10
2021,04,20,03,55,10.20
2021,04,20,03,56,10.20
2021,04,20,03,57,10.20
2021,04,20,03,58,10.20
2021,04,20,03,59,10.10
2021,04,20,04,00,10.10
2021,04,20,04,01,10.10
2021,04,20,04,02,10.10
2021,04,20,04,03,10.10
2021,04,20,04,04,10.10
2021,04,20,04,05,10.00
2021,04,20,04,06,10.00
2021,04,20,04,07,10.00
2021,04,20,04,08,9.90
2021,04,20,04,09,9.90
2021,04,20,04,10,9.90
2021,04,20,04,11,9.90
2021,04,20,04,12,9.80
2021,04,20,04,13,9.80
2021,04,20,04,14,9.80
2021,04,20,04,15,9.80
2021,04,20,04,16,9.80
2021,04,20,04,17,9.70
2021,04,20,04,18,9.70
2021,04,20,04,19,9.70
2021,04,20,04,20,9.70
2021,04,20,04,21,9.70
2021,04,20,04,22,9.70
2021,04,20,04,23,9.70
2021,04,20,04,24,9.60
2021,04,20,04,25,9.60
2021,04,20,04,26,9.60
2021,04,20,04,27,9.60
2021,04,20,04,28,9.60
2021,04,20,04,29,9.60
2021,04,20,04,30,9.50
2021,04,20,04,31,9.50
2021,04,20,04,32,9.50
2021,04,20,04,33,9.50
2021,04,20,04,34,9.40
2021,04,20,04,35,9.40
2021,04,20,04,36,9.40
2021,04,20,04,37,9.30
2021,04,20,04,38,9.30
2021,04,20,04,39,9.30
2021,04,20,04,40,9.30
2021,04,20,04,41,9.30
2021,04,20,04,42,9.20
2021,04,20,04,43,9.20
2021,04,20,04,44,9.20
2021,04,20,04,45,9.20
2021,04,20,04,46,9.20
2021,04,20,04,47,9.20
2021,04,20,04,48,9.20
2021,04,20,04,49,9.10
2021,04,20,04,50,9.10
2021,04,20,04,51,9.10
2021,04,20,04,52,9.10
2021,04,20,04,53,9.10
2021,04,20,04,54,9.10
2021,04,20,04,55,9.10
2021,04,20,04,56,9.00
2021,04,20,04,57,9.00
2021,04,20,04,58,9.00
2021,04,20,04,59,9.00
2021,04,20,05,00,9.00
2021,04,20,05,01,9.00
2021,04,20,05,02,9.00
2021,04,20,05,03,9.00
2021,04,20,05,04,8.90
2021,04,20,05,05,8.90
2021,04,20,05,06,8.90
2021,04,20,05,07,8.90
2021,04,20,05,08,8.80
2021,04,20,05,09,8.80
2021,04,20,05,10,8.80
2021,04,20,05,11,8.80
2021,04,20,05,12,8.80
2021,04,20,05,13,8.90
2021,04,20,05,14,8.90
2021,04,20,05,15,8.90
2021,04,20,05,16,8.90
2021,04,20,05,17,8.90
2021,04,20,05,18,8.90
2021,04,20,05,19,8.80
2021,04,20,05,20,8.80
2021,04,20,05,21,8.80
2021,04,20,05,22,8.80
2021,04,20,05,23,8.80
2021,04,20,05,24,8.80
2021,04,20,05,25,8.80
2021,04,20,05,26,8.80
2021,04,20,05,27,8.80
2021,04,20,05,28,8.80
2021,04,20,05,29,8.70
2021,04,20,05,30,8.70
2021,04,20,05,31,8.70
2021,04,20,05,32,8.70
2021,04,20,05,33,8.70
2021,04,20,05,34,8.70
2021,04,20,05,35,8.70
2021,04,20,05,36,8.60
2021,04,20,05,37,8.60
2021,04,20,05,38,8.60
2021,04,20,05,39,8.60
2021,04,20,05,40,8.60
2021,04,20,05,41,8.50
2021,04,20,05,42,8.50
2021,04,20,05,43,8.50
2021,04,20,05,44,8.50
2021,04,20,05,45,8.50
2021,04,20,05,46,8.40
2021,04,20,05,47,8.40
2021,04,20,05,48,8.40
2021,04,20,05,49,8.40
2021,04,20,05,50,8.40
2021,04,20,05,51,8.40
2021,04,20,05,52,8.40
2021,04,20,05,53,8.40
2021,04,20,05,54,8.40
2021,04,20,05,55,8.30
2021,04,20,05,56,8.30
2021,04,20,05,57,8.30
2021,04,20,05,58,8.30
2021,04,20,05,59,8.30
2021,04,20,06,00,8.30
2021,04,20,06,01,8.30
2021,04,20,06,02,8.30
2021,04,20,06,03,8.30
2021,04,20,06,04,8.30
2021,04,20,06,05,8.30
2021,04,20,06,06,8.30
2021,04,20,06,07,8.30
2021,04,20,06,08,8.30
2021,04,20,06,09,8.30
2021,04,20,06,10,8.20
2021,04,20,06,11,8.20
2021,04,20,06,12,8.20
2021,04,20,06,13,8.20
2021,04,20,06,14,8.20
2021,04,20,06,15,8.20
2021,04,20,06,16,8.20
2021,04,20,06,17,8.20
2021,04,20,06,18,8.20
2021,04,20,06,19,8.20
2021,04,20,06,20,8.20
2021,04,20,06,21,8.10
2021,04,20,06,22,8.20
2021,04,20,06,23,8.10
2021,04,20,06,24,8.20
2021,04,20,06,25,8.10
2021,04,20,06,26,8.20
2021,04,20,06,27,8.20
2021,04,20,06,28,8.20
2021,04,20,06,29,8.20
2021,04,20,06,30,8.20
2021,04,20,06,31,8.20
2021,04,20,06,32,8.20
2021,04,20,06,33,8.20
2021,04,20,06,34,8.20
2021,04,20,06,35,8.20
2021,04,20,06,36,8.20
2021,04,20,06,37,8.30
2021,04,20,06,38,8.20
2021,04,20,06,39,8.30
2021,04,20,06,40,8.30
2021,04,20,06,41,8.30
2021,04,20,06,42,8.30
2021,04,20,06,43,8.30
2021,04,20,06,44,8.30
2021,04,20,06,45,8.30
2021,04,20,06,46,8.30
2021,04,20,06,47,8.30
2021,04,20,06,48,8.30
2021,04,20,06,49,8.30
2021,04,20,06,50,8.30
2021,04,20,06,51,8.30
2021,04,20,06,52,8.30
2021,04,20,06,53,8.30
2021,04,20,06,54,8.30
2021,04,20,06,55,8.30
2021,04,20,06,56,8.40
2021,04,20,06,57,8.30
2021,04,20,06,58,8.30
2021,04,20,06,59,8.30
2021,04,20,07,00,8.30
2021,04,20,07,01,8.30
2021,04,20,07,02,8.30
2021,04,20,07,03,8.30
2021,04,20,07,04,8.30
2021,04,20,07,05,8.40
2021,04,20,07,06,8.40
2021,04,20,07,07,8.40
2021,04,20,07,08,8.40
2021,04,20,07,09,8.40
2021,04,20,07,10,8.40
2021,04,20,07,11,8.40
2021,04,20,07,12,8.40
2021,04,20,07,13,8.40
2021,04,20,07,14,8.40
2021,04,20,07,15,8.40
2021,04,20,07,16,8.40
2021,04,20,07,17,8.50
2021,04,20,07,18,8.50
2021,04,20,07,19,8.50
2021,04,20,07,20,8.60
2021,04,20,07,21,8.60
2021,04,20,07,22,8.60
2021,04,20,07,23,8.60
2021,04,20,07,24,8.60
2021,04,20,07,25,8.60
2021,04,20,07,26,8.70
2021,04,20,07,27,8.70
2021,04,20,07,28,8.70
2021,04,20,07,29,8.70
2021,04,20,07,30,8.70
2021,04,20,07,31,8.80
2021,04,20,07,32,8.80
2021,04,20,07,33,8.80
2021,04,20,07,34,8.90
2021,04,20,07,35,8.90
2021,04,20,07,36,8.90
2021,04,20,07,37,9.00
2021,04,20,07,38,9.10
2021,04,20,07,39,9.10
2021,04,20,07,40,9.10
2021,04,20,07,41,9.20
2021,04,20,07,42,9.20
2021,04,20,07,43,9.30
2021,04,20,07,44,9.30
2021,04,20,07,45,9.40
2021,04,20,07,46,9.50
2021,04,20,07,47,9.50
2021,04,20,07,48,9.60
2021,04,20,07,49,9.70
2021,04,20,07,50,9.70
2021,04,20,07,51,9.80
2021,04,20,07,52,9.80
2021,04,20,07,53,9.90
2021,04,20,07,54,9.90
2021,04,20,07,55,10.00
2021,04,20,07,56,10.10
2021,04,20,07,57,10.10
2021,04,20,07,58,10.10
2021,04,20,07,59,10.20
2021,04,20,08,00,10.20
2021,04,20,08,01,10.30
2021,04,20,08,02,10.30
2021,04,20,08,03,10.40
2021,04,20,08,04,10.40
2021,04,20,08,05,10.50
2021,04,20,08,06,10.50
2021,04,20,08,07,10.60
2021,04,20,08,08,10.60
2021,04,20,08,09,10.70
2021,04,20,08,10,10.70
2021,04,20,08,11,10.70
2021,04,20,08,12,10.70
2021,04,20,08,13,10.70
2021,04,20,08,14,10.80
2021,04,20,08,15,10.80
2021,04,20,08,16,10.80
2021,04,20,08,17,10.80
2021,04,20,08,18,10.80
2021,04,20,08,19,10.80
2021,04,20,08,20,10.80
2021,04,20,08,21,10.80
2021,04,20,08,22,10.80
2021,04,20,08,23,10.80
2021,04,20,08,24,10.80
2021,04,20,08,25,10.80
2021,04,20,08,26,10.80
2021,04,20,08,27,10.80
2021,04,20,08,28,10.80
2021,04,20,08,29,10.80
2021,04,20,08,30,10.90
2021,04,20,08,31,10.90
2021,04,20,08,32,10.90
2021,04,20,08,33,11.00
2021,04,20,08,34,11.00
2021,04,20,08,35,11.10
2021,04,20,08,36,11.20
2021,04,20,08,37,11.30
2021,04,20,08,38,11.40
2021,04,20,08,39,11.50
2021,04,20,08,40,11.60
2021,04,20,08,41,11.70
2021,04,20,08,42,11.80
2021,04,20,08,43,11.90
2021,04,20,08,44,12.00
2021,04,20,08,45,12.00
2021,04,20,08,46,12.10
2021,04,20,08,47,12.20
2021,04,20,08,48,12.20
2021,04,20,08,49,12.30
2021,04,20,08,50,12.40
2021,04,20,08,51,12.50
2021,04,20,08,52,12.60
2021,04,20,08,53,12.70
2021,04,20,08,54,12.70
2021,04,20,08,55,12.80
2021,04,20,08,56,12.80
2021,04,20,08,57,12.90
2021,04,20,08,58,12.90
2021,04,20,08,59,13.00
2021,04,20,09,00,13.00
2021,04,20,09,01,13.10
2021,04,20,09,02,13.20
2021,04,20,09,03,13.20
2021,04,20,09,04,13.20
2021,04,20,09,05,13.30
2021,04,20,09,06,13.30
2021,04,20,09,07,13.30
2021,04,20,09,08,13.40
2021,04,20,09,09,13.50
2021,04,20,09,10,13.50
2021,04,20,09,11,13.60
2021,04,20,09,12,13.70
2021,04,20,09,13,13.80
2021,04,20,09,14,13.90
2021,04,20,09,15,14.00
2021,04,20,09,16,14.10
2021,04,20,09,17,14.20
2021,04,20,09,18,14.30
2021,04,20,09,19,14.30
2021,04,20,09,20,14.40
2021,04,20,09,21,14.50
2021,04,20,09,22,14.60
2021,04,20,09,23,14.60
2021,04,20,09,24,14.70
2021,04,20,09,25,14.70
2021,04,20,09,26,14.70
2021,04,20,09,27,14.80
2021,04,20,09,28,14.80
2021,04,20,09,29,14.80
2021,04,20,09,30,14.80
2021,04,20,09,31,14.80
2021,04,20,09,32,14.90
2021,04,20,09,33,14.90
2021,04,20,09,34,14.90
2021,04,20,09,35,14.90
2021,04,20,09,36,14.90
2021,04,20,09,37,14.90
2021,04,20,09,38,14.80
2021,04,20,09,39,14.80
2021,04,20,09,40,14.80
2021,04,20,09,41,14.80
2021,04,20,09,42,14.70
2021,04,20,09,43,14.70
2021,04,20,09,44,14.70
2021,04,20,09,45,14.70
2021,04,20,09,46,14.70
2021,04,20,09,47,14.80
2021,04,20,09,48,14.80
2021,04,20,09,49,14.80
2021,04,20,09,50,14.80
2021,04,20,09,51,14.80
2021,04,20,09,52,14.90
2021,04,20,09,53,14.90
2021,04,20,09,54,14.90
2021,04,20,09,55,14.90
2021,04,20,09,56,14.70
2021,04,20,09,57,14.50
2021,04,20,09,58,14.30
2021,04,20,09,59,14.20
2021,04,20,10,00,14.10
2021,04,20,10,01,14.10
2021,04,20,10,02,14.10
2021,04,20,10,03,14.10
2021,04,20,10,04,14.10
2021,04,20,10,05,14.10
2021,04,20,10,06,14.10
2021,04,20,10,07,14.10
2021,04,20,10,08,14.10
2021,04,20,10,09,14.10
2021,04,20,10,10,14.10
2021,04,20,10,11,14.10
2021,04,20,10,12,14.10
2021,04,20,10,13,14.10
2021,04,20,10,14,14.10
2021,04,20,10,15,14.20
2021,04,20,10,16,14.20
2021,04,20,10,17,14.20
2021,04,20,10,18,14.10
2021,04,20,10,19,14.10
2021,04,20,10,20,14.10
2021,04,20,10,21,14.10
2021,04,20,10,22,14.10
2021,04,20,10,23,14.10
2021,04,20,10,24,14.10
2021,04,20,10,25,14.10
2021,04,20,10,26,14.10
2021,04,20,10,27,14.10
2021,04,20,10,28,14.10
2021,04,20,10,29,14.10
2021,04,20,10,30,14.10
2021,04,20,10,31,14.10
2021,04,20,10,32,14.10
2021,04,20,10,33,14.10
2021,04,20,10,34,14.10
2021,04,20,10,35,14.20
2021,04,20,10,36,14.20
2021,04,20,10,37,14.30
2021,04,20,10,38,14.30
2021,04,20,10,39,14.30
2021,04,20,10,40,14.40
2021,04,20,10,41,14.40
2021,04,20,10,42,14.50
2021,04,20,10,43,14.50
2021,04,20,10,44,14.50
2021,04,20,10,45,14.60
2021,04,20,10,46,14.60
2021,04,20,10,47,14.60
2021,04,20,10,48,14.60
2021,04,20,10,49,14.60
2021,04,20,10,50,14.60
2021,04,20,10,51,14.50
2021,04,20,10,52,14.50
2021,04,20,10,53,14.50
2021,04,20,10,54,14.40
2021,04,20,10,55,14.40
2021,04,20,10,56,14.40
2021,04,20,10,57,14.40
2021,04,20,10,58,14.40
2021,04,20,10,59,14.30
2021,04,20,11,00,14.30
2021,04,20,11,01,14.30
2021,04,20,11,02,14.30
2021,04,20,11,03,14.30
2021,04,20,11,04,14.20
2021,04,20,11,05,14.20
2021,04,20,11,06,14.20
2021,04,20,11,07,14.20
2021,04,20,11,08,14.20
2021,04,20,11,09,14.20
2021,04,20,11,10,14.30
2021,04,20,11,11,14.20
2021,04,20,11,12,14.30
2021,04,20,11,13,14.30
2021,04,20,11,14,14.20
2021,04,20,11,15,14.20
2021,04,20,11,16,14.20
2021,04,20,11,17,14.30
2021,04,20,11,18,14.30
2021,04,20,11,19,14.30
2021,04,20,11,20,14.30
2021,04,20,11,21,14.30
2021,04,20,11,22,14.30
2021,04,20,11,23,14.30
2021,04,20,11,24,14.30
2021,04,20,11,25,14.30
2021,04,20,11,26,14.30
2021,04,20,11,27,14.30
2021,04,20,11,28,14.30
2021,04,20,11,29,14.30
2021,04,20,11,30,14.30
2021,04,20,11,31,14.30
2021,04,20,11,32,14.30
2021,04,20,11,33,14.30
2021,04,20,11,34,14.20
2021,04,20,11,35,14.20
2021,04,20,11,36,14.20
2021,04,20,11,37,14.30
2021,04,20,11,38,14.30
2021,04,20,11,39,14.30
2021,04,20,11,40,14.30
2021,04,20,11,41,14.30
2021,04,20,11,42,14.30
2021,04,20,11,43,14.30
2021,04,20,11,44,14.30
2021,04,20,11,45,14.30
2021,04,20,11,46,14.30
2021,04,20,11,47,14.30
2021,04,20,11,48,14.30
2021,04,20,11,49,14.30
2021,04,20,11,50,14.30
2021,04,20,11,51,14.40
2021,04,20,11,52,14.40
2021,04,20,11,53,14.40
2021,04,20,11,54,14.40
2021,04,20,11,55,14.50
2021,04,20,11,56,14.50
2021,04,20,11,57,14.60
2021,04,20,11,58,14.70
2021,04,20,11,59,14.70
2021,04,20,12,00,14.80
2021,04,20,12,01,14.80
2021,04,20,12,02,14.90
2021,04,20,12,03,15.00
2021,04,20,12,04,15.10
2021,04,20,12,05,15.20
2021,04,20,12,06,15.20
2021,04,20,12,07,15.30
2021,04,20,12,08,15.30
2021,04,20,12,09,15.30
2021,04,20,12,10,15.40
2021,04,20,12,11,15.40
2021,04,20,12,12,15.40
2021,04,20,12,13,15.40
2021,04,20,12,14,15.30
2021,04,20,12,15,15.30
2021,04,20,12,16,15.20
2021,04,20,12,17,15.20
2021,04,20,12,18,15.20
2021,04,20,12,19,15.10
2021,04,20,12,20,15.10
2021,04,20,12,21,15.10
2021,04,20,12,22,15.00
2021,04,20,12,23,15.00
2021,04,20,12,24,14.90
2021,04,20,12,25,14.90
2021,04,20,12,26,14.90
2021,04,20,12,27,14.80
2021,04,20,12,28,14.80
2021,04,20,12,29,14.80
2021,04,20,12,30,14.80
2021,04,20,12,31,14.80
2021,04,20,12,32,14.80
2021,04,20,12,33,14.80
2021,04,20,12,34,14.80
2021,04,20,12,35,14.80
2021,04,20,12,36,14.80
2021,04,20,12,37,14.80
2021,04,20,12,38,14.80
2021,04,20,12,39,14.80
2021,04,20,12,40,14.80
2021,04,20,12,41,14.80
2021,04,20,12,42,14.80
2021,04,20,12,43,14.80
2021,04,20,12,44,14.80
2021,04,20,12,45,14.80
2021,04,20,12,46,14.90
2021,04,20,12,47,14.90
2021,04,20,12,48,14.90
2021,04,20,12,49,15.00
2021,04,20,12,50,15.00
2021,04,20,12,51,15.10
2021,04,20,12,52,15.10
2021,04,20,12,53,15.10
2021,04,20,12,54,15.20
2021,04,20,12,55,15.20
2021,04,20,12,56,15.20
2021,04,20,12,57,15.20
2021,04,20,12,58,15.20
2021,04,20,12,59,15.20
2021,04,20,13,00,15.20
2021,04,20,13,01,15.20
2021,04,20,13,02,15.30
2021,04,20,13,03,15.30
2021,04,20,13,04,15.30
2021,04,20,13,05,15.30
2021,04,20,13,06,15.30
2021,04,20,13,07,15.30
2021,04,20,13,08,15.30
2021,04,20,13,09,15.30
2021,04,20,13,10,15.30
2021,04,20,13,11,15.30
2021,04,20,13,12,15.30
2021,04,20,13,13,15.30
2021,04,20,13,14,15.30
2021,04,20,13,15,15.30
2021,04,20,13,16,15.30
2021,04,20,13,17,15.30
2021,04,20,13,18,15.30
2021,04,20,13,19,15.40
2021,04,20,13,20,15.40
2021,04,20,13,21,15.40
2021,04,20,13,22,15.40
2021,04,20,13,23,15.40
2021,04,20,13,24,15.50
2021,04,20,13,25,15.50
2021,04,20,13,26,15.50
2021,04,20,13,27,15.50
2021,04,20,13,28,15.60
2021,04,20,13,29,15.60
2021,04,20,13,30,15.60
2021,04,20,13,31,15.70
2021,04,20,13,32,15.70
2021,04,20,13,33,15.70
2021,04,20,13,34,15.70
2021,04,20,13,35,15.70
2021,04,20,13,36,15.70
2021,04,20,13,37,15.70
2021,04,20,13,38,15.80
2021,04,20,13,39,15.80
2021,04,20,13,40,15.80
2021,04,20,13,41,15.90
2021,04,20,13,42,15.90
2021,04,20,13,43,16.00
2021,04,20,13,44,16.00
2021,04,20,13,45,16.10
2021,04,20,13,46,16.10
2021,04,20,13,47,16.20
2021,04,20,13,48,16.30
2021,04,20,13,49,16.40
2021,04,20,13,50,16.50
2021,04,20,13,51,16.60
2021,04,20,13,52,16.70
2021,04,20,13,53,16.80
2021,04,20,13,54,16.80
2021,04,20,13,55,17.00
2021,04,20,13,56,17.00
2021,04,20,13,57,17.10
2021,04,20,13,58,17.20
2021,04,20,13,59,17.30
2021,04,20,14,00,17.40
2021,04,20,14,01,17.40
2021,04,20,14,02,17.50
2021,04,20,14,03,17.60
2021,04,20,14,04,17.60
2021,04,20,14,05,17.70
2021,04,20,14,06,17.80
2021,04,20,14,07,17.80
2021,04,20,14,08,17.90
2021,04,20,14,09,18.00
2021,04,20,14,10,18.00
2021,04,20,14,11,18.10
2021,04,20,14,12,18.10
2021,04,20,14,13,18.20
2021,04,20,14,14,18.20
2021,04,20,14,15,18.20
2021,04,20,14,16,18.20
2021,04,20,14,17,18.20
2021,04,20,14,18,18.30
2021,04,20,14,19,18.30
2021,04,20,14,20,18.30
2021,04,20,14,21,18.30
2021,04,20,14,22,18.30
2021,04,20,14,23,18.40
2021,04,20,14,24,18.40
2021,04,20,14,25,18.40
2021,04,20,14,26,18.50
2021,04,20,14,27,18.40
2021,04,20,14,28,18.40
2021,04,20,14,29,18.40
2021,04,20,14,30,18.50
2021,04,20,14,31,18.50
2021,04,20,14,32,18.50
2021,04,20,14,33,18.50
2021,04,20,14,34,18.50
2021,04,20,14,35,18.60
2021,04,20,14,36,18.60
2021,04,20,14,37,18.60
2021,04,20,14,38,18.60
2021,04,20,14,39,18.60
2021,04,20,14,40,18.60
2021,04,20,14,41,18.60
2021,04,20,14,42,18.60
2021,04,20,14,43,18.60
2021,04,20,14,44,18.70
2021,04,20,14,45,18.70
2021,04,20,14,46,18.70
2021,04,20,14,47,18.70
2021,04,20,14,48,18.70
2021,04,20,14,49,18.70
2021,04,20,14,50,18.70
2021,04,20,14,51,18.70
2021,04,20,14,52,18.60
2021,04,20,14,53,18.60
2021,04,20,14,54,18.50
2021,04,20,14,55,18.40
2021,04,20,14,56,18.40
2021,04,20,14,57,18.30
2021,04,20,14,58,18.30
2021,04,20,14,59,18.30
2021,04,20,15,00,18.30
2021,04,20,15,01,18.30
2021,04,20,15,02,18.30
2021,04,20,15,03,18.30
2021,04,20,15,04,18.30
2021,04,20,15,05,18.40
2021,04,20,15,06,18.40
2021,04,20,15,07,18.40
2021,04,20,15,08,18.50
2021,04,20,15,09,18.50
2021,04,20,15,10,18.60
2021,04,20,15,11,18.60
2021,04,20,15,12,18.60
2021,04,20,15,13,18.70
2021,04,20,15,14,18.70
2021,04,20,15,15,18.70
2021,04,20,15,16,18.80
2021,04,20,15,17,18.80
2021,04,20,15,18,18.90
2021,04,20,15,19,18.90
2021,04,20,15,20,18.90
2021,04,20,15,21,19.00
2021,04,20,15,22,19.00
2021,04,20,15,23,19.00
2021,04,20,15,24,19.00
2021,04,20,15,25,19.10
2021,04,20,15,26,19.10
2021,04,20,15,27,19.10
2021,04,20,15,28,19.10
2021,04,20,15,29,19.10
2021,04,20,15,30,19.10
2021,04,20,15,31,19.10
2021,04,20,15,32,19.10
2021,04,20,15,33,19.20
2021,04,20,15,34,19.20
2021,04,20,15,35,19.20
2021,04,20,15,36,19.30
2021,04,20,15,37,19.30
2021,04,20,15,38,19.40
2021,04,20,15,39,19.40
2021,04,20,15,40,19.40
2021,04,20,15,41,19.40
2021,04,20,15,42,19.40
2021,04,20,15,43,19.50
2021,04,20,15,44,19.50
2021,04,20,15,45,19.50
2021,04,20,15,46,19.60
2021,04,20,15,47,19.60
2021,04,20,15,48,19.70
2021,04,20,15,49,19.70
2021,04,20,15,50,19.70
2021,04,20,15,51,19.80
2021,04,20,15,52,19.80
2021,04,20,15,53,19.80
2021,04,20,15,54,19.80
2021,04,20,15,55,19.80
2021,04,20,15,56,19.90
2021,04,20,15,57,19.90
2021,04,20,15,58,20.00
2021,04,20,15,59,20.00
2021,04,20,16,00,20.10
2021,04,20,16,01,20.10
2021,04,20,16,02,20.00
2021,04,20,16,03,20.00
2021,04,20,16,04,20.00
2021,04,20,16,05,20.00
2021,04,20,16,06,19.90
2021,04,20,16,07,19.90
2021,04,20,16,08,19.90
2021,04,20,16,09,19.90
2021,04,20,16,10,19.90
2021,04,20,16,11,19.90
2021,04,20,16,12,19.90
2021,04,20,16,13,20.00
2021,04,20,16,14,20.00
2021,04,20,16,15,20.00
2021,04,20,16,16,20.00
2021,04,20,16,17,20.10
2021,04,20,16,18,20.10
2021,04,20,16,19,20.10
2021,04,20,16,20,20.20
2021,04,20,16,21,20.10
2021,04,20,16,22,20.10
2021,04,20,16,23,20.10
2021,04,20,16,24,20.10
2021,04,20,16,25,20.10
2021,04,20,16,26,20.10
2021,04,20,16,27,20.10
2021,04,20,16,28,20.10
2021,04,20,16,29,20.10
2021,04,20,16,30,20.10
2021,04,20,16,31,20.10
2021,04,20,16,32,20.00
2021,04,20,16,33,20.00
2021,04,20,16,34,19.90
2021,04,20,16,35,19.90
2021,04,20,16,36,20.00
2021,04,20,16,37,20.00
2021,04,20,16,38,19.90
2021,04,20,16,39,19.90
2021,04,20,16,40,19.80
2021,04,20,16,41,19.80
2021,04,20,16,42,19.70
2021,04,20,16,43,19.70
2021,04,20,16,44,19.70
2021,04,20,16,45,19.70
2021,04,20,16,46,19.70
2021,04,20,16,47,19.60
2021,04,20,16,48,19.50
2021,04,20,16,49,19.40
2021,04,20,16,50,19.30
2021,04,20,16,51,19.30
2021,04,20,16,52,19.30
2021,04,20,16,53,19.20
2021,04,20,16,54,19.20
2021,04,20,16,55,19.20
2021,04,20,16,56,19.30
2021,04,20,16,57,19.30
2021,04,20,16,58,19.30
2021,04,20,16,59,19.40
2021,04,20,17,00,19.30
2021,04,20,17,01,19.30
2021,04,20,17,02,19.30
2021,04,20,17,03,19.30
2021,04,20,17,04,19.30
2021,04,20,17,05,19.30
2021,04,20,17,06,19.30
2021,04,20,17,07,19.30
2021,04,20,17,08,19.30
2021,04,20,17,09,19.30
2021,04,20,17,10,19.30
2021,04,20,17,11,19.30
2021,04,20,17,12,19.30
2021,04,20,17,13,19.30
2021,04,20,17,14,19.30
2021,04,20,17,15,19.20
2021,04,20,17,16,19.20
2021,04,20,17,17,19.20
2021,04,20,17,18,19.20
2021,04,20,17,19,19.20
2021,04,20,17,20,19.20
2021,04,20,17,21,19.20
2021,04,20,17,22,19.20
2021,04,20,17,23,19.20
2021,04,20,17,24,19.20
2021,04,20,17,25,19.20
2021,04,20,17,26,19.20
2021,04,20,17,27,19.20
2021,04,20,17,28,19.20
2021,04,20,17,29,19.20
2021,04,20,17,30,19.20
2021,04,20,17,31,19.20
2021,04,20,17,32,19.10
2021,04,20,17,33,19.10
2021,04,20,17,34,19.10
2021,04,20,17,35,19.00
2021,04,20,17,36,19.00
2021,04,20,17,37,18.90
2021,04,20,17,38,18.90
2021,04,20,17,39,18.90